Regional Weather Roundup
Issued by NWS Upton, NY

Current Version | Previous Version | Text Only | Print | Product List | Glossary On
Versions: 1 2 3 4 5 6 7 8 9 10 11 12 13 14 15 16 17 18 19 20 21 22 23 24 25 26 27 28 29 30 31 32 33 34 35 36 37 38 39 40 41 42 43 44 45 46 47 48 49 50
973
ASUS41 KOKX 231704
RWROKX

REGIONAL WEATHER ROUNDUP
NATIONAL WEATHER SERVICE NEW YORK NY
100 PM EDT TUE AUG 23 2016

NOTE: "FAIR" INDICATES FEW OR NO CLOUDS BELOW 12,000 FEET WITH NO
SIGNIFICANT WEATHER AND/OR OBSTRUCTIONS TO VISIBILITY.

NYZ071-072-176-178-NJZ106-104-231800-
NEW YORK CITY METRO AREA

CITY           SKY/WX    TMP DP  RH WIND       PRES   REMARKS
Central Park   SUNNY     79  54  41 CALM      30.33F
LaGuardia APRT MOSUNNY   79  48  33 NW7       30.30S
Kennedy INTL   MOSUNNY   77  48  35 S12       30.31F
Newark/Liberty MOSUNNY   81  48  31 W8        30.30F
Bronx Bot Gard   N/A     79  50  36 SW13      30.33F
Wall St Helipt SUNNY     82  54  36 SW7       30.31F
Teterboro      SUNNY     79  51  37 NW10      30.29F
$$

NYZ177-179-078>081-231800-
LONG ISLAND NEW YORK

CITY           SKY/WX    TMP DP  RH WIND       PRES   REMARKS
Farmingdale    SUNNY     77  47  34 SW5       30.30F
MacArthur/ISP  MOSUNNY   78  48  34 VRB6      30.30F
Shirley        SUNNY     78  49  35 VRB3      30.31S
Riverhead      NOT AVBL
Westhampton    SUNNY     75  53  46 S8        30.32S
Southampton      N/A     77  52  41 NW5       30.27S
Bridgehampton  NOT AVBL
East Hampton   FAIR      74  54  50 SW3       30.30S
Montauk          N/A     76  49  38 W5        30.32S
$$

NYZ052-065-067-231800-
HUDSON VALLEY

CITY           SKY/WX    TMP DP  RH WIND       PRES   REMARKS
White Plains   MOSUNNY   76  49  38 NW8       30.30F
Newburgh       MOSUNNY   73  57  56 CALM      30.32F
Montgomery     MOSUNNY   75  57  53 SE5       30.29F
Poughkeepsie   SUNNY     77  51  40 W5        30.28F
Albany         MOSUNNY   74  54  49 VRB5      30.28F
$$

NJZ001-105-106-008-010-013-015-019>022-104-231800-
NEW JERSEY

CITY           SKY/WX    TMP DP  RH WIND       PRES   REMARKS
Newark/Liberty MOSUNNY   81  48  31 W8        30.30F
Teterboro      SUNNY     79  51  37 NW10      30.29F
Caldwell       SUNNY     78  52  40 VRB3      30.31F
Morristown     MOSUNNY   75  52  43 W7        30.31F
Somerville     SUNNY     78  54  43 CALM      30.30F
Linden         FAIR      79  50  36 W8        30.32F
Sussex         SUNNY     76  56  49 W9        30.30F
Abdover          N/A     74  56  53 VRB5      30.32F
Trenton        SUNNY     78  52  40 CALM      30.32F
Millville      SUNNY     78  55  44 W6        30.33F
Atlantic City  MOSUNNY   79  51  37 VRB7      30.33S
Wrightstown    SUNNY     78  55  45 NW5       30.30S
Toms River     SUNNY     79  53  40 VRB6      30.32F
Belmar         SUNNY     79  53  40 VRB3      30.33S
$$

PAZ047>061-062-071-231800-
EASTERN PENNSYLVANIA

CITY           SKY/WX    TMP DP  RH WIND       PRES   REMARKS
Philadelphia   MOSUNNY   79  51  37 S8        30.32F
Allentown      SUNNY     78  56  46 CALM      30.32F
Scranton       MOSUNNY   75  56  51 W6        30.32F
$$

CTZ002-004>006-009-010-012-RIZ004-006-007-MAZ004-011-015-231800-
SOUTHERN NEW ENGLAND
 IN CT

CITY           SKY/WX    TMP DP  RH WIND       PRES   REMARKS
Bradley INTL   MOSUNNY   76  51  41 W7        30.28F
Hartford       SUNNY     79  55  43 S10       30.27F
Danbury        SUNNY     73  49  42 W7        30.31F
Wtrbury/Oxford MOSUNNY   73  50  43 W5        30.32F
Bridgeport     SUNNY     76  54  46 SW12      30.30F
Meriden        SUNNY     78  49  35 VRB6      30.28F
New Haven      MOSUNNY   75  54  47 SW8       30.29F
Chester        FAIR      75  48  38 SW6       30.30F
Groton         SUNNY     75  55  49 S12       30.29S
Wilimantic     SUNNY     75  50  41 SW5       30.29F

 IN RI

CITY           SKY/WX    TMP DP  RH WIND       PRES   REMARKS
Providence     MOSUNNY   78  45  30 W7        30.28F
Block Island   SUNNY     74  49  41 VRB7      30.31S
Westerly       SUNNY     77  47  34 S12       30.30S
 IN MA

CITY           SKY/WX    TMP DP  RH WIND       PRES   REMARKS
Boston         MOSUNNY   77  45  32 VRB7      30.25F
Worcester      SUNNY     71  45  39 VRB6      30.29F
Westfield      MOSUNNY   77  49  37 SW9       30.27F
Provincetown   SUNNY     74  53  48 W6        30.27F
Nantucket      SUNNY     74  53  48 S10       30.28F
$$

ANZ330-335-338-340-345-350-353-355-231800-
COASTAL MARINE OBSERVATIONS


STATION/POSITION TIME  SKY/WX   TEMP    WIND        PRES    VSBY  WAVE
                                AIR SEA DIR/SP/G                  HT/PER
                 (UTC)          (F)     (DEG/KT/KT) (MB)    (MI)  (FT/S)
NY HARB ENTRANCE 1550            72 78  260/  2/  4 1026.7          1/13
20S FIRE ISLAND  1550            70 77   30/  4/  8 1026.7          2/ 8
GREAT SOUTH BAY  1600            73 80  260/  4/  6   N/A
23 SSW MONTAUK P 1550            69 75  310/  2/  4 1026.9          2/11
15 E BARNEGAT LI 1600               77                N/A           2/ 9
HUDSON CANYON    1550            72 78              1026.5          2/ 5
KINGS POINT      1600            73 75              1026.3
EXECUTION ROCKS  1600            75     140/  2/  4   N/A
CENTRAL LI SOUND NOT AVBL
EASTERN LI SOUND 1600            70 70  220/  6/  8   N/A
ROBBINS REEF     1612            74      30/  4/  5 1025.7
$$


>>>>>>>>>>>>>>>>>>>>>>>>>>>> KEY <<<<<<<<<<<<<<<<<<<<<<<<<<<
>                                                          <
>     SKY/WX - Sky Condition/Present Weather               <
>     TMP    - Temperature in Fahrenheit                   <
>     DP     - Dew Point in Fahrenheit                     <
>     RH     - Relative Humidity in Percent                <
>     WIND   - Direction (from) and Speed in MPH           <
>     PRES   - Mean Sea Level Pressure (inches of Hg)      <
>     WCI    - Wind Chill Index                            <
>     VSB    - VISIBILITY IN MILES                         <
>     HX     - HEAT INDEX                                  <
>     TC     - TEMPERATURE IN CELSIUS                      <
>     VRB    - VARIABLE WIND DIRECTION                     <
>                                                          <
>>>>>>>>>>>>>>>>>>>>>>>>>>>> KEY <<<<<<<<<<<<<<<<<<<<<<<<<<<




USA.gov is the U.S. government's official web portal to all federal, state and local government web resources and services.